Time,TemperatureF,DewpointF,PressureIn,WindDirection,WindDirectionDegrees,WindSpeedMPH,WindSpeedGustMPH,Humidity,HourlyPrecipIn,Conditions,Clouds,dailyrainin,SoftwareType,DateUTC
2013-03-18 00:00:00,52.9,49.1,30.05,West,263,0.0,2.7,87,0.00,,,0.00,VWS V14.01,2013-03-18 07:00:00,
2013-03-18 00:10:00,52.5,48.8,30.05,WNW,300,0.0,4.3,87,0.00,,,0.00,VWS V14.01,2013-03-18 07:10:00,
2013-03-18 00:20:00,52.3,48.6,30.02,WNW,301,0.0,3.8,87,0.00,,,0.00,VWS V14.01,2013-03-18 07:20:00,
2013-03-18 00:30:00,52.3,48.6,30.02,WNW,301,0.0,2.7,87,0.00,,,0.00,VWS V14.01,2013-03-18 07:30:00,
2013-03-18 00:40:00,52.3,48.6,30.02,WNW,301,0.0,0.0,87,0.00,,,0.00,VWS V14.01,2013-03-18 07:40:00,
2013-03-18 00:50:00,52.0,48.2,30.02,NW,304,2.7,3.2,87,0.00,,,0.00,VWS V14.01,2013-03-18 07:50:00,
2013-03-18 01:00:00,52.0,48.5,30.02,WNW,282,0.0,4.8,88,0.00,,,0.00,VWS V14.01,2013-03-18 08:00:00,
2013-03-18 01:10:00,51.8,48.4,30.02,West,281,0.0,0.0,88,0.00,,,0.00,VWS V14.01,2013-03-18 08:10:00,
2013-03-18 01:20:00,51.8,48.4,30.02,WNW,282,0.0,0.0,88,0.00,,,0.00,VWS V14.01,2013-03-18 08:20:00,
2013-03-18 01:30:00,51.4,47.7,30.05,WNW,286,0.0,0.0,87,0.00,,,0.00,VWS V14.01,2013-03-18 08:30:00,
2013-03-18 01:40:00,51.1,47.3,30.02,WNW,287,0.0,0.0,87,0.00,,,0.00,VWS V14.01,2013-03-18 08:40:00,
2013-03-18 01:50:00,50.7,46.7,30.02,WNW,286,0.0,0.0,86,0.00,,,0.00,VWS V14.01,2013-03-18 08:50:00,
2013-03-18 02:00:00,50.2,46.2,30.02,WNW,287,0.0,0.0,86,0.00,,,0.00,VWS V14.01,2013-03-18 09:00:00,
2013-03-18 02:10:00,50.0,46.0,30.02,WNW,286,0.0,0.0,86,0.00,,,0.00,VWS V14.01,2013-03-18 09:10:00,
2013-03-18 02:20:00,49.8,45.8,30.02,WNW,286,0.0,0.0,86,0.00,,,0.00,VWS V14.01,2013-03-18 09:20:00,
2013-03-18 02:30:00,49.5,45.5,30.05,WNW,286,0.0,0.0,86,0.00,,,0.00,VWS V14.01,2013-03-18 09:30:00,
2013-03-18 02:40:00,49.3,45.3,30.05,WNW,286,0.0,0.0,86,0.00,,,0.00,VWS V14.01,2013-03-18 09:40:00,
2013-03-18 02:50:00,49.1,45.4,30.05,WNW,286,0.0,0.0,87,0.00,,,0.00,VWS V14.01,2013-03-18 09:50:00,
2013-03-18 03:00:00,48.9,45.2,30.05,WNW,286,0.0,0.0,87,0.00,,,0.00,VWS V14.01,2013-03-18 10:00:00,
2013-03-18 03:10:00,48.9,45.5,30.05,WNW,286,0.0,0.0,88,0.00,,,0.00,VWS V14.01,2013-03-18 10:10:00,
2013-03-18 03:20:00,49.1,46.0,30.05,WNW,286,0.0,0.0,89,0.00,,,0.00,VWS V14.01,2013-03-18 10:20:00,
2013-03-18 03:30:00,49.5,46.7,30.05,NW,304,0.0,2.7,90,0.00,,,0.00,VWS V14.01,2013-03-18 10:30:00,
2013-03-18 03:40:00,49.8,47.3,30.05,NW,304,0.0,0.0,91,0.00,,,0.00,VWS V14.01,2013-03-18 10:40:00,
2013-03-18 03:50:00,50.2,47.7,30.05,West,273,3.2,4.3,91,0.00,,BKN012,0.00,VWS V14.01,2013-03-18 10:50:00,
2013-03-18 04:00:00,50.9,49.0,30.02,West,262,0.0,5.9,93,0.00,,BKN012,0.00,VWS V14.01,2013-03-18 11:00:00,
2013-03-18 04:10:00,51.3,49.6,30.02,West,268,2.7,2.7,94,0.00,,BKN012,0.00,VWS V14.01,2013-03-18 11:10:00,
2013-03-18 04:20:00,51.4,49.8,30.02,West,268,0.0,2.7,94,0.00,,BKN012,0.00,VWS V14.01,2013-03-18 11:20:00,
2013-03-18 04:30:00,51.6,50.0,30.02,West,268,0.0,0.0,94,0.00,,BKN012,0.00,VWS V14.01,2013-03-18 11:30:00,
2013-03-18 04:40:00,51.8,50.1,30.02,West,268,0.0,0.0,94,0.00,,OVC016,0.00,VWS V14.01,2013-03-18 11:40:00,
2013-03-18 04:50:00,51.8,50.1,30.02,West,268,0.0,0.0,94,0.00,,OVC016,0.00,VWS V14.01,2013-03-18 11:50:00,
2013-03-18 05:00:00,51.8,50.1,30.02,West,268,0.0,3.2,94,0.00,,OVC016,0.00,VWS V14.01,2013-03-18 12:00:00,
2013-03-18 05:10:00,51.6,50.0,30.02,West,268,0.0,3.8,94,0.00,,OVC016,0.00,VWS V14.01,2013-03-18 12:10:00,
2013-03-18 05:20:00,51.4,49.5,30.02,West,268,0.0,2.7,93,0.00,,OVC016,0.00,VWS V14.01,2013-03-18 12:20:00,
2013-03-18 05:30:00,51.4,49.5,30.05,West,268,0.0,0.0,93,0.00,,OVC016,0.00,VWS V14.01,2013-03-18 12:30:00,
2013-03-18 05:40:00,51.4,49.5,30.05,West,268,0.0,0.0,93,0.00,,OVC016,0.00,VWS V14.01,2013-03-18 12:40:00,
2013-03-18 05:50:00,51.6,49.7,30.05,West,268,0.0,0.0,93,0.00,,BKN018,0.00,VWS V14.01,2013-03-18 12:50:00,
2013-03-18 06:00:00,51.6,49.7,30.05,ENE,67,0.0,4.8,93,0.00,,BKN018,0.00,VWS V14.01,2013-03-18 13:00:00,
2013-03-18 06:10:00,51.4,49.5,30.05,ENE,63,3.2,4.8,93,0.00,,BKN018,0.00,VWS V14.01,2013-03-18 13:10:00,
2013-03-18 06:20:00,50.9,48.7,30.05,ENE,77,0.0,4.3,92,0.00,,BKN018,0.00,VWS V14.01,2013-03-18 13:20:00,
2013-03-18 06:30:00,50.7,48.5,30.05,NE,35,0.0,5.9,92,0.00,,BKN018,0.00,VWS V14.01,2013-03-18 13:30:00,
2013-03-18 06:40:00,50.4,48.1,30.05,NNE,26,4.3,5.4,92,0.00,,OVC018,0.00,VWS V14.01,2013-03-18 13:40:00,
2013-03-18 06:50:00,50.4,48.1,30.08,NNE,22,3.2,7.0,92,0.00,,OVC018,0.00,VWS V14.01,2013-03-18 13:50:00,
2013-03-18 07:00:00,50.5,48.6,30.08,North,0,2.7,6.4,93,0.00,,OVC018,0.00,VWS V14.01,2013-03-18 14:00:00,
2013-03-18 07:10:00,50.5,48.6,30.08,NNE,17,4.3,7.0,93,0.00,,OVC018,0.00,VWS V14.01,2013-03-18 14:10:00,
2013-03-18 07:20:00,50.7,49.1,30.08,NE,37,3.2,5.9,94,0.00,,OVC018,0.00,VWS V14.01,2013-03-18 14:20:00,
2013-03-18 07:30:00,50.9,49.2,30.08,NNE,18,2.7,4.8,94,0.00,,OVC018,0.00,VWS V14.01,2013-03-18 14:30:00,
2013-03-18 07:40:00,51.1,49.4,30.08,ENE,64,3.2,4.8,94,0.00,,OVC018,0.00,VWS V14.01,2013-03-18 14:40:00,
2013-03-18 07:50:00,51.3,49.6,30.08,NNE,16,4.3,4.8,94,0.00,,,0.00,VWS V14.01,2013-03-18 14:50:00,
2013-03-18 08:00:00,51.4,49.8,30.08,NNE,30,2.7,4.8,94,0.00,,,0.00,VWS V14.01,2013-03-18 15:00:00,
2013-03-18 08:10:00,51.6,50.0,30.08,ENE,73,3.2,4.3,94,0.00,,,0.00,VWS V14.01,2013-03-18 15:10:00,
2013-03-18 08:20:00,51.8,50.1,30.08,NE,43,3.2,4.8,94,0.00,,,0.00,VWS V14.01,2013-03-18 15:20:00,
2013-03-18 08:30:00,51.8,50.1,30.08,NNE,20,3.8,7.5,94,0.00,,,0.00,VWS V14.01,2013-03-18 15:30:00,
2013-03-18 08:40:00,51.8,50.1,30.08,NNE,23,4.8,7.0,94,0.00,,,0.00,VWS V14.01,2013-03-18 15:40:00,
2013-03-18 08:50:00,52.0,50.0,30.08,NNE,16,4.3,7.5,93,0.00,,,0.00,VWS V14.01,2013-03-18 15:50:00,
2013-03-18 09:00:00,52.3,50.4,30.11,ENE,57,0.0,5.9,93,0.00,,,0.00,VWS V14.01,2013-03-18 16:00:00,
2013-03-18 09:10:00,52.9,50.9,30.11,North,4,2.7,4.8,93,0.00,,,0.00,VWS V14.01,2013-03-18 16:10:00,
2013-03-18 09:20:00,53.2,51.0,30.11,North,1,0.0,3.8,92,0.00,,,0.00,VWS V14.01,2013-03-18 16:20:00,
2013-03-18 09:30:00,53.6,51.0,30.11,North,1,0.0,2.7,91,0.00,,,0.00,VWS V14.01,2013-03-18 16:30:00,
2013-03-18 09:40:00,54.0,51.1,30.14,ENE,67,2.7,3.8,90,0.00,,,0.00,VWS V14.01,2013-03-18 16:40:00,
2013-03-18 09:50:00,54.3,51.2,30.11,North,356,4.3,4.3,89,0.00,,,0.00,VWS V14.01,2013-03-18 16:50:00,
2013-03-18 10:00:00,54.9,51.4,30.11,North,0,0.0,4.8,88,0.00,,,0.00,VWS V14.01,2013-03-18 17:00:00,
2013-03-18 10:10:00,55.4,51.3,30.14,North,356,0.0,0.0,86,0.00,,,0.00,VWS V14.01,2013-03-18 17:10:00,
2013-03-18 10:20:00,55.9,51.2,30.14,North,356,0.0,0.0,84,0.00,,,0.00,VWS V14.01,2013-03-18 17:20:00,
2013-03-18 10:30:00,56.5,51.4,30.14,ENE,63,0.0,0.0,83,0.00,,,0.00,VWS V14.01,2013-03-18 17:30:00,
2013-03-18 10:40:00,56.8,51.1,30.11,SW,231,0.0,4.8,81,0.00,,,0.00,VWS V14.01,2013-03-18 17:40:00,
2013-03-18 10:50:00,57.0,50.6,30.14,SSW,199,0.0,3.8,79,0.00,,,0.00,VWS V14.01,2013-03-18 17:50:00,
2013-03-18 11:00:00,57.6,50.8,30.14,South,173,2.7,3.8,78,0.00,,,0.00,VWS V14.01,2013-03-18 18:00:00,
2013-03-18 11:10:00,58.1,50.6,30.11,WSW,258,0.0,3.8,76,0.00,,,0.00,VWS V14.01,2013-03-18 18:10:00,
2013-03-18 11:20:00,58.5,50.2,30.11,East,96,2.7,4.8,74,0.00,,,0.00,VWS V14.01,2013-03-18 18:20:00,
2013-03-18 11:30:00,59.0,50.4,30.11,SSE,168,2.7,6.4,73,0.00,,,0.00,VWS V14.01,2013-03-18 18:30:00,
2013-03-18 11:40:00,59.4,50.3,30.14,South,184,4.8,6.4,72,0.00,,,0.00,VWS V14.01,2013-03-18 18:40:00,
2013-03-18 11:50:00,59.7,50.3,30.14,SSW,197,4.3,7.5,71,0.00,,,0.00,VWS V14.01,2013-03-18 18:50:00,
2013-03-18 12:00:00,60.3,50.5,30.11,SSE,155,4.3,5.9,70,0.00,,,0.00,VWS V14.01,2013-03-18 19:00:00,
2013-03-18 12:10:00,60.6,50.4,30.14,South,176,7.0,7.5,69,0.00,,,0.00,VWS V14.01,2013-03-18 19:10:00,
2013-03-18 12:20:00,60.8,50.2,30.14,WSW,254,4.3,7.5,68,0.00,,,0.00,VWS V14.01,2013-03-18 19:20:00,
2013-03-18 12:30:00,60.6,50.4,30.11,WNW,293,4.8,7.0,69,0.00,,,0.00,VWS V14.01,2013-03-18 19:30:00,
2013-03-18 12:40:00,60.6,50.4,30.11,SSW,192,4.8,7.5,69,0.00,,,0.00,VWS V14.01,2013-03-18 19:40:00,
2013-03-18 12:50:00,60.8,50.2,30.11,South,173,7.5,9.9,68,0.00,,,0.00,VWS V14.01,2013-03-18 19:50:00,
2013-03-18 13:00:00,60.6,50.0,30.11,SW,236,3.8,9.1,68,0.00,,,0.00,VWS V14.01,2013-03-18 20:00:00,
2013-03-18 13:10:00,61.0,50.4,30.11,WSW,249,3.2,9.7,68,0.00,,,0.00,VWS V14.01,2013-03-18 20:10:00,
2013-03-18 13:20:00,61.2,50.1,30.11,SSW,211,5.9,9.9,67,0.00,,,0.00,VWS V14.01,2013-03-18 20:20:00,
2013-03-18 13:30:00,61.3,49.9,30.11,SSE,153,2.7,9.9,66,0.00,,,0.00,VWS V14.01,2013-03-18 20:30:00,
2013-03-18 13:40:00,61.3,49.5,30.11,South,189,5.9,10.5,65,0.00,,,0.00,VWS V14.01,2013-03-18 20:40:00,
2013-03-18 13:50:00,62.2,49.9,30.11,South,187,7.5,12.1,64,0.00,,OVC020,0.00,VWS V14.01,2013-03-18 20:50:00,
2013-03-18 14:00:00,62.8,50.0,30.11,South,180,6.4,10.5,63,0.00,,OVC020,0.00,VWS V14.01,2013-03-18 21:00:00,
2013-03-18 14:10:00,63.0,49.8,30.11,SSW,207,9.1,9.1,62,0.00,,OVC020,0.00,VWS V14.01,2013-03-18 21:10:00,
2013-03-18 14:20:00,62.6,49.4,30.11,SSE,163,9.7,9.9,62,0.00,,OVC020,0.00,VWS V14.01,2013-03-18 21:20:00,
2013-03-18 14:30:00,62.1,49.3,30.08,SSW,200,3.2,9.9,63,0.00,,OVC020,0.00,VWS V14.01,2013-03-18 21:30:00,
2013-03-18 14:40:00,61.7,49.0,30.08,WSW,254,4.3,10.5,63,0.00,,OVC020,0.00,VWS V14.01,2013-03-18 21:40:00,
2013-03-18 14:50:00,61.9,49.6,30.08,South,171,4.3,9.1,64,0.00,,OVC020,0.00,VWS V14.01,2013-03-18 21:50:00,
2013-03-18 15:00:00,61.7,49.4,30.08,South,170,6.4,9.1,64,0.00,,CLR,0.00,VWS V14.01,2013-03-18 22:00:00,
2013-03-18 15:10:00,61.9,49.6,30.08,SW,233,7.0,7.5,64,0.00,,CLR,0.00,VWS V14.01,2013-03-18 22:10:00,
2013-03-18 15:20:00,61.9,49.6,30.08,SSW,200,3.8,9.1,64,0.00,,CLR,0.00,VWS V14.01,2013-03-18 22:20:00,
2013-03-18 15:30:00,61.7,49.4,30.08,SSW,213,6.4,7.0,64,0.00,,CLR,0.00,VWS V14.01,2013-03-18 22:30:00,
2013-03-18 15:40:00,61.2,48.9,30.05,South,180,0.0,8.6,64,0.00,,CLR,0.00,VWS V14.01,2013-03-18 22:40:00,
2013-03-18 15:50:00,60.8,49.0,30.05,SSW,211,3.8,9.1,65,0.00,,CLR,0.00,VWS V14.01,2013-03-18 22:50:00,
2013-03-18 16:00:00,60.3,48.9,30.08,SW,223,0.0,9.9,66,0.00,,CLR,0.00,VWS V14.01,2013-03-18 23:00:00,
2013-03-18 16:10:00,60.1,49.1,30.08,West,281,3.2,7.5,67,0.00,,CLR,0.00,VWS V14.01,2013-03-18 23:10:00,
2013-03-18 16:20:00,59.9,48.9,30.05,SSW,207,0.0,7.5,67,0.00,,CLR,0.00,VWS V14.01,2013-03-18 23:20:00,
2013-03-18 16:30:00,59.9,48.9,30.05,WSW,247,0.0,6.4,67,0.00,,CLR,0.00,VWS V14.01,2013-03-18 23:30:00,
2013-03-18 16:40:00,59.7,48.8,30.05,SSW,209,4.8,7.5,67,0.00,,CLR,0.00,VWS V14.01,2013-03-18 23:40:00,
2013-03-18 16:50:00,59.4,48.8,30.05,South,189,0.0,6.4,68,0.00,,CLR,0.00,VWS V14.01,2013-03-18 23:50:00,
2013-03-18 17:00:00,59.4,48.8,30.05,SSW,208,4.3,6.4,68,0.00,,CLR,0.00,VWS V14.01,2013-03-19 00:00:00,
2013-03-18 17:10:00,59.2,49.0,30.05,South,175,7.0,7.0,69,0.00,,CLR,0.00,VWS V14.01,2013-03-19 00:10:00,
2013-03-18 17:20:00,58.8,49.1,30.05,SSW,204,3.2,9.1,70,0.00,,CLR,0.00,VWS V14.01,2013-03-19 00:20:00,
2013-03-18 17:30:00,58.8,49.1,30.05,South,191,3.2,7.5,70,0.00,,CLR,0.00,VWS V14.01,2013-03-19 00:30:00,
2013-03-18 17:40:00,58.5,48.7,30.08,SSW,204,6.4,9.1,70,0.00,,CLR,0.00,VWS V14.01,2013-03-19 00:40:00,
2013-03-18 17:50:00,58.1,48.8,30.08,SSW,194,6.4,12.1,71,0.00,,CLR,0.00,VWS V14.01,2013-03-19 00:50:00,
2013-03-18 18:00:00,57.9,48.6,30.08,West,273,9.7,11.5,71,0.00,,CLR,0.00,VWS V14.01,2013-03-19 01:00:00,
2013-03-18 18:10:00,57.6,48.6,30.08,SW,226,9.1,12.6,72,0.00,,CLR,0.00,VWS V14.01,2013-03-19 01:10:00,
2013-03-18 18:20:00,57.2,48.6,30.08,SW,223,4.3,12.1,73,0.00,,CLR,0.00,VWS V14.01,2013-03-19 01:20:00,
2013-03-18 18:30:00,57.0,48.8,30.08,SW,233,3.2,9.9,74,0.00,,CLR,0.00,VWS V14.01,2013-03-19 01:30:00,
2013-03-18 18:40:00,56.8,48.7,30.08,SW,218,3.2,10.5,74,0.00,,BKN021,0.00,VWS V14.01,2013-03-19 01:40:00,
2013-03-18 18:50:00,56.8,49.4,30.08,SSW,200,3.2,8.6,76,0.00,,BKN021,0.00,VWS V14.01,2013-03-19 01:50:00,
2013-03-18 19:00:00,56.8,49.7,30.08,WSW,241,4.8,9.9,77,0.00,,BKN021,0.00,VWS V14.01,2013-03-19 02:00:00,
2013-03-18 19:10:00,56.7,50.2,30.08,SW,231,5.4,9.7,79,0.00,,BKN021,0.00,VWS V14.01,2013-03-19 02:10:00,
2013-03-18 19:20:00,56.5,50.7,30.08,WSW,246,7.0,7.5,81,0.00,,BKN021,0.00,VWS V14.01,2013-03-19 02:20:00,
2013-03-18 19:30:00,56.5,50.7,30.08,West,266,3.8,7.5,81,0.00,,BKN021,0.00,VWS V14.01,2013-03-19 02:30:00,
2013-03-18 19:40:00,56.5,51.1,30.08,SW,221,4.3,9.1,82,0.00,,OVC021,0.00,VWS V14.01,2013-03-19 02:40:00,
2013-03-18 19:50:00,56.5,51.1,30.08,WSW,242,0.0,7.0,82,0.00,,OVC021,0.00,VWS V14.01,2013-03-19 02:50:00,
2013-03-18 20:00:00,56.3,50.9,30.08,WSW,249,3.8,4.8,82,0.00,,SCT021,0.00,VWS V14.01,2013-03-19 03:00:00,
2013-03-18 20:10:00,56.3,50.5,30.08,WNW,291,0.0,3.8,81,0.00,,SCT021,0.00,VWS V14.01,2013-03-19 03:10:00,
2013-03-18 20:20:00,56.3,50.5,30.08,WNW,292,0.0,4.3,81,0.00,,SCT021,0.00,VWS V14.01,2013-03-19 03:20:00,
2013-03-18 20:30:00,56.3,50.5,30.08,WNW,292,0.0,0.0,81,0.00,,SCT021,0.00,VWS V14.01,2013-03-19 03:30:00,
2013-03-18 20:40:00,56.3,50.5,30.08,WNW,292,0.0,0.0,81,0.00,,SCT021,0.00,VWS V14.01,2013-03-19 03:40:00,
2013-03-18 20:50:00,56.3,50.5,30.11,WNW,292,0.0,0.0,81,0.00,,FEW016,0.00,VWS V14.01,2013-03-19 03:50:00,
2013-03-18 21:00:00,55.9,50.5,30.11,WNW,292,0.0,0.0,82,0.00,,FEW016,0.00,VWS V14.01,2013-03-19 04:00:00,
2013-03-18 21:10:00,55.6,50.2,30.11,NNE,30,0.0,0.0,82,0.00,,FEW016,0.00,VWS V14.01,2013-03-19 04:10:00,
2013-03-18 21:20:00,55.2,49.8,30.11,North,4,0.0,0.0,82,0.00,,FEW016,0.00,VWS V14.01,2013-03-19 04:20:00,
2013-03-18 21:30:00,54.9,49.8,30.11,NNE,24,0.0,0.0,83,0.00,,FEW016,0.00,VWS V14.01,2013-03-19 04:30:00,
2013-03-18 21:40:00,54.7,49.6,30.11,NE,52,3.8,4.3,83,0.00,,FEW016,0.00,VWS V14.01,2013-03-19 04:40:00,
2013-03-18 22:00:00,54.3,49.9,30.11,NNE,32,3.2,4.3,85,0.00,,CLR,0.00,VWS V14.01,2013-03-19 05:00:00,
2013-03-18 22:10:00,54.1,50.0,30.11,NNE,13,3.2,4.8,86,0.00,,CLR,0.00,VWS V14.01,2013-03-19 05:10:00,
2013-03-18 22:20:00,54.0,49.9,30.11,NE,40,0.0,3.2,86,0.00,,CLR,0.00,VWS V14.01,2013-03-19 05:20:00,
2013-03-18 22:30:00,53.8,49.7,30.11,NNE,21,0.0,0.0,86,0.00,,CLR,0.00,VWS V14.01,2013-03-19 05:30:00,
2013-03-18 22:40:00,53.4,49.3,30.11,NNE,21,0.0,0.0,86,0.00,,CLR,0.00,VWS V14.01,2013-03-19 05:40:00,
2013-03-18 22:50:00,53.2,49.2,30.11,NNE,21,0.0,0.0,86,0.00,,CLR,0.00,VWS V14.01,2013-03-19 05:50:00,
2013-03-18 23:00:00,53.2,49.2,30.11,West,278,3.8,3.8,86,0.00,,CLR,0.00,VWS V14.01,2013-03-19 06:00:00,
2013-03-18 23:10:00,53.2,49.5,30.11,WNW,294,3.2,4.3,87,0.00,,CLR,0.00,VWS V14.01,2013-03-19 06:10:00,
2013-03-18 23:20:00,53.4,50.0,30.11,WSW,254,2.7,3.8,88,0.00,,CLR,0.00,VWS V14.01,2013-03-19 06:20:00,
2013-03-18 23:30:00,53.4,49.7,30.11,WSW,255,2.7,4.8,87,0.00,,CLR,0.00,VWS V14.01,2013-03-19 06:30:00,
2013-03-18 23:40:00,53.2,49.5,30.11,WNW,293,0.0,4.3,87,0.00,,CLR,0.00,VWS V14.01,2013-03-19 06:40:00,
2013-03-18 23:50:00,53.2,49.5,30.11,WNW,293,0.0,0.0,87,0.00,,BKN017,0.00,VWS V14.01,2013-03-19 06:50:00,